Flag for China Weather past 2 weeks in Shenyang, Liaoning, China

Now
21 °F

Clear.


Feels Like: 14 °F
Forecast: -2 / 19 °F
Wind: 6 mph from Southeast

Location: Shenyang / Taoxian

Current Time: Dec 29, 2014 at 8:32:47 AM

Latest Report: Dec 29, 2014 at 8:00 AM


Visibility: 2 mi

Pressure: 29.89 "Hg

Humidity: 63%

Dew point: 10 °F

Location of ShenyangLocation

Historic Weather in Shenyang — Graph

°F

Shenyang temperature yesterday

Maximum temperature yesterday: 32 °F (at 2:00 PM)
Minimum temperature yesterday: 16 °F (at 10:00 PM)
Average temperature yesterday: 25 °F

Past Weeks' High & Low Weather Summary

 TemperatureHumidityPressure
High37 °F (Dec 23, 12:30 PM)100% (Dec 19, 2:00 PM)30.57 "Hg (Dec 19, 2:00 PM)
Low-13 °F (Dec 17, 1:30 AM)29% (Dec 26, 2:30 PM)29.89 "Hg (Dec 29, 5:00 AM)
Average14 °F67%30.28 "Hg
* Reported Dec 14 7:00 AM — Dec 29 7:30 AM, Shenyang, Weather by CustomWeather, © 2014

Note: Actual official high and low records may vary slightly from our data, if they occured in-between our weather recording intervals... More about our weather records

Advertising

Shenyang weather history for previous 24 hours

 ConditionsComfort  
Time TempWeatherWind HumidityBarometerVisibility
7:30 AM
Dec 29
19 °FClear.8 mph68%29.89 "Hg2 mi
7:00 AM19 °FClear.6 mph68%29.89 "Hg2 mi
6:30 AM19 °FClear.6 mph63%29.89 "Hg4 mi
6:00 AM21 °FClear.8 mph63%29.89 "Hg4 mi
5:30 AM19 °FClear.6 mph68%29.89 "Hg4 mi
5:00 AM19 °FClear.6 mph63%29.89 "Hg4 mi
4:30 AM16 °FClear.6 mph73%29.92 "Hg4 mi
4:00 AM19 °FClear.6 mph63%29.92 "Hg10 mi
3:30 AM18 °FClear.3 mph68%29.92 "Hg10 mi
3:00 AM19 °FClear.6 mph63%29.95 "Hg10 mi
2:30 AM14 °FClear.3 mph79%29.95 "Hg10 mi
2:00 AM18 °FClear.6 mph62%29.95 "Hg10 mi
1:30 AM12 °FClear.3 mph73%29.98 "Hg10 mi
1:00 AM16 °FClear.1 mph67%29.98 "Hg10 mi
12:30 AM18 °FClear.3 mph62%29.98 "Hg10 mi
12:00 AM14 °FClear.No wind62%29.98 "Hg10 mi
11:30 PM
Dec 28
18 °FClear.3 mph62%29.98 "Hg10 mi
11:00 PM18 °FClear.3 mph62%30.01 "Hg10 mi
10:30 PM19 °FClear.6 mph58%30.01 "Hg10 mi
10:00 PM16 °FClear.3 mph62%30.01 "Hg10 mi
9:30 PM18 °FClear.3 mph62%30.01 "Hg10 mi
9:00 PM21 °FClear.6 mph58%30.01 "Hg4 mi
8:30 PM21 °FClear.6 mph58%30.04 "Hg4 mi
8:00 PM19 °FClear.6 mph63%30.04 "Hg4 mi
7:30 PM23 °FClear.6 mph54%30.04 "Hg4 mi
7:00 PM23 °FClear.3 mph58%30.04 "Hg4 mi
6:30 PM23 °FClear.3 mph58%30.04 "Hg4 mi
6:00 PM23 °FClear.1 mph58%30.04 "Hg4 mi
5:30 PM25 °FClear.1 mph59%30.04 "Hg4 mi
5:00 PM27 °FClear.3 mph54%30.04 "Hg4 mi
4:30 PM28 °FClear.3 mph55%30.04 "Hg4 mi
4:00 PM30 °FClear.1 mph51%30.04 "Hg4 mi
3:30 PM32 °FClear.1 mph40%30.04 "Hg4 mi
3:00 PM32 °FClear.1 mph55%30.04 "Hg2 mi
2:30 PM32 °FClear.3 mph60%30.04 "Hg1 mi
2:00 PM32 °FClear.1 mph75%30.04 "Hg1 mi
1:30 PM28 °FIce fog.3 mph93%30.04 "Hg1 mi
1:00 PM27 °FIce fog.1 mph100%30.07 "Hg1 mi
12:30 PM27 °FIce fog.1 mph93%30.07 "Hg1 mi
12:00 PM27 °FIce fog.1 mph93%30.07 "Hg1 mi
11:30 AM23 °FIce fog.1 mph100%30.09 "Hg0 mi
11:00 AM23 °FIce fog.3 mph93%30.12 "Hg0 mi
10:30 AM23 °FIce fog.3 mph93%30.12 "Hg0 mi
10:00 AM23 °FIce fog.3 mph93%30.12 "Hg0 mi
9:30 AM23 °FIce fog.3 mph93%30.12 "Hg0 mi
9:00 AM23 °FIce fog.3 mph93%30.12 "Hg0 mi
8:30 AM25 °FIce fog.3 mph93%30.12 "Hg0 mi
8:00 AM25 °FIce fog.3 mph93%30.12 "Hg0 mi
Weather by CustomWeather, © 2014

See weather overviewHow to use our weather pages